(322183) = 2007 LY32 = 2010 AE94 = 2010 XP44

Discovered at Catalina on 2009-10-18 by CSS.

Orbit

Orbit type: Main Belt

Note: WebGL enabled browser required.

epoch2023-09-13.0
epoch JD2460200.5
perihelion date2023-03-25.14062
perihelion JD2460028.64062
argument of perihelion (°)298.85015
ascending node (°)256.51324
inclination (°)25.50794
eccentricity0.2629172
perihelion distance (AU)2.2865283
Tisserand w.r.t. Jupiter3.0
ΔV w.r.t. Earth (km/sec)12.2
semimajor axis (AU)3.1021321
mean anomaly (°)31.00178
mean daily motion (°/day)0.18039040
aphelion distance (AU)3.918
period (years)5.46
P-vector [x]-0.88124295
P-vector [y]-0.11130954
P-vector [z]-0.45937028
Q-vector [x]0.21920360
Q-vector [y]-0.95728617
Q-vector [z]-0.18855495
absolute magnitude14.63
phase slope0.15
uncertainty0
referenceMPEC 2024-A48
observations used655
oppositions14
arc length (days)7684
first opposition used2002
last opposition used2023
residual rms (arc-secs)0.60
perturbers coarse indicatorM-v
perturbers precise indicator003Ek
first observation date used2002-06-07.0
last observation date used2023-06-21.0
computer nameMPCLINUX
JD of orbit computation2456937.293022
perihelion JD uncertainty (days)8.9729E-05
argument of perihelion uncertainty (°)2.2366E-05
ascending node uncertainty (°)1.5623E-05
inclination uncertainty (°)9.5433E-06
eccentricity uncertainty 6.1530E-08
perihelion distance uncertainty (AU)2.0655E-07
Minimum Orbit Intersection Distances (in AU)
for orbit epoch: 2460200.5, reference: E2024-A48
Mercury1.89291
Venus1.64488
Earth1.37857
Mars0.90385
Jupiter1.57592
Saturn5.60972
Uranus15.8414
Neptune26.2276

Observations

686 total observations over interval: 2002 06 07.46406 – 2023 06 21.831977
These data are available for download (format description).

Date (UT) J2000 RA J2000 Dec Magn Location Ref
2002 06 07.46406 20 21 53.04 +01 36 18.6 19.7 R 644 – Palomar Mountain/NEAT MPS 363059
2002 06 07.46521 20 21 53.01 +01 36 19.8 20.1 R 644 – Palomar Mountain/NEAT MPS 363059
2002 06 07.47453 20 21 52.78 +01 36 24.2 19.8 R 644 – Palomar Mountain/NEAT MPS 363059
2002 06 07.47568 20 21 52.74 +01 36 25.1 19.9 R 644 – Palomar Mountain/NEAT MPS 363059
2002 06 21.31737 20 14 45.17 +03 33 10.0 19.1 R 644 – Palomar Mountain/NEAT MPS 411635
2002 06 21.33062 20 14 44.64 +03 33 15.9 19.1 R 644 – Palomar Mountain/NEAT MPS 411635
2007 06 15.27164 17 03 29.42 -20 32 31.1 18.4   704 – Lincoln Laboratory ETS, New Mexico MPS 211112
2007 06 15.28153 17 03 28.78 -20 32 23.6 19.1   704 – Lincoln Laboratory ETS, New Mexico MPS 211112
2007 06 15.31095 17 03 27.13 -20 32 03.5 18.7   704 – Lincoln Laboratory ETS, New Mexico MPS 211112
2007 06 21.26896 16 58 07.65 -19 23 57.3 18.4   704 – Lincoln Laboratory ETS, New Mexico MPS 211112
2007 06 21.27871 16 58 07.05 -19 23 51.3 18.3   704 – Lincoln Laboratory ETS, New Mexico MPS 211112
2007 06 21.28854 16 58 06.58 -19 23 44.6 18.5   704 – Lincoln Laboratory ETS, New Mexico MPS 211112
2007 06 21.29836 16 58 06.07 -19 23 37.5 18.8   704 – Lincoln Laboratory ETS, New Mexico MPS 211112
2007 06 21.30814 16 58 05.54 -19 23 30.9 18.2   704 – Lincoln Laboratory ETS, New Mexico MPS 211112
2007 06 23.25772 16 56 28.79 -19 02 01.4   291 – LPL/Spacewatch II MPS 211394
2007 06 23.26178 16 56 28.62 -19 01 58.9   291 – LPL/Spacewatch II MPS 211394
2007 06 23.26615 16 56 28.38 -19 01 55.5   291 – LPL/Spacewatch II MPS 211394
2007 06 24.23226 16 55 42.00 -18 51 26.3   291 – LPL/Spacewatch II MPS 211394
2007 06 24.23651 16 55 41.86 -18 51 23.2   291 – LPL/Spacewatch II MPS 211394
2007 06 24.24322 16 55 41.46 -18 51 19.4   291 – LPL/Spacewatch II MPS 211394
2009 10 18.35395 00 59 50.96 +35 10 00.0 20.6 V 703 – Catalina Sky Survey MPS 363059
2009 10 18.36069 00 59 50.74 +35 09 58.0 21.0 V 703 – Catalina Sky Survey MPS 363059
2009 10 18.36747 00 59 50.35 +35 09 54.4 20.1 V 703 – Catalina Sky Survey MPS 363059
2009 10 18.37421 00 59 50.06 +35 09 51.5 20.3 V 703 – Catalina Sky Survey MPS 363059
2010 01 08.77856 00 48 36.12 +24 41 25.9   C51 – WISE MPS 329318
2010 01 08.778560 00 48 36.12 +24 41 25.6   C51 – WISE MPS 329318
2010 01 08.910992 00 48 40.67 +24 40 54.2   C51 – WISE MPS 329318
2010 01 09.04330 00 48 45.18 +24 40 24.5   C51 – WISE MPS 329318
2010 01 09.175601 00 48 50.03 +24 39 51.8   C51 – WISE MPS 329318
2010 01 09.241817 00 48 52.29 +24 39 37.8   C51 – WISE MPS 329318
2010 01 09.30791 00 48 54.67 +24 39 22.0   C51 – WISE MPS 329318
2010 01 09.30803 00 48 54.69 +24 39 23.0   C51 – WISE MPS 329318
2010 01 09.374122 00 48 56.89 +24 39 07.9   C51 – WISE MPS 329318
2010 01 09.440338 00 48 59.36 +24 38 49.2   C51 – WISE MPS 329318
2010 01 09.506426 00 49 01.70 +24 38 36.3   C51 – WISE MPS 329318
2010 11 02.50895 05 29 34.29 +26 20 37.7 19.7 V G96 – Mt. Lemmon Survey MPS 363059
2010 11 02.51346 05 29 34.15 +26 20 36.3 19.9 V G96 – Mt. Lemmon Survey MPS 363059
2010 11 02.51810 05 29 34.04 +26 20 35.0 20.2 V G96 – Mt. Lemmon Survey MPS 363059
2010 11 02.52272 05 29 33.90 +26 20 33.7 20.3 V G96 – Mt. Lemmon Survey MPS 363059
2010 11 14.38568 05 22 39.22 +25 22 22.1 20.0 V 691 – Steward Observatory, Kitt Peak-Spacewatch MPS 363059
2010 11 14.40345 05 22 38.35 +25 22 16.3 20.4 V 691 – Steward Observatory, Kitt Peak-Spacewatch MPS 363059
2010 11 14.42117 05 22 37.65 +25 22 10.8 20.1 V 691 – Steward Observatory, Kitt Peak-Spacewatch MPS 363059
2010 12 07.35390 05 02 39.04 +22 59 12.9 18.5 V 703 – Catalina Sky Survey MPS 359440
2010 12 07.35904 05 02 38.79 +22 59 11.1 18.5 V 703 – Catalina Sky Survey MPS 359440
2010 12 07.36417 05 02 38.47 +22 59 09.7 19.2 V 703 – Catalina Sky Survey MPS 359440
2010 12 07.36934 05 02 38.04 +22 59 07.9 18.4 V 703 – Catalina Sky Survey MPS 359440
2010 12 09.303848 05 00 45.80 +22 45 38.1 19.8 V H21 – Astronomical Research Observatory, Westfield MPS 359440
2010 12 09.308149 05 00 45.54 +22 45 36.1 19.8 V H21 – Astronomical Research Observatory, Westfield MPS 359440
2010 12 09.312454 05 00 45.28 +22 45 34.2 19.8 V H21 – Astronomical Research Observatory, Westfield MPS 359440
2010 12 09.43449 05 00 38.12 +22 44 43.2 18.5 V G96 – Mt. Lemmon Survey MPS 359440
2010 12 09.43590 05 00 38.05 +22 44 42.5 18.4 V G96 – Mt. Lemmon Survey MPS 359440
2010 12 09.43732 05 00 37.94 +22 44 42.1 18.4 V G96 – Mt. Lemmon Survey MPS 359440
2010 12 09.43873 05 00 37.87 +22 44 41.3 18.6 V G96 – Mt. Lemmon Survey MPS 359440
2010 12 13.20726 04 56 59.93 +22 18 05.5 19.3   704 – Lincoln Laboratory ETS, New Mexico MPS 359440
2010 12 13.22041 04 56 59.15 +22 18 00.2 19.6   704 – Lincoln Laboratory ETS, New Mexico MPS 359440
2010 12 13.23359 04 56 58.36 +22 17 54.7 20.0   704 – Lincoln Laboratory ETS, New Mexico MPS 359440
2010 12 13.24001 04 56 58.05 +22 17 51.3 18.6 V G96 – Mt. Lemmon Survey MPS 359440
2010 12 13.24524 04 56 57.76 +22 17 49.3 18.6 V G96 – Mt. Lemmon Survey MPS 359440
2010 12 13.24682 04 56 57.60 +22 17 47.3 19.6   704 – Lincoln Laboratory ETS, New Mexico MPS 359440
2010 12 13.25045 04 56 57.44 +22 17 47.0 18.6 V G96 – Mt. Lemmon Survey MPS 359440
2010 12 13.25566 04 56 57.15 +22 17 44.8 18.6 V G96 – Mt. Lemmon Survey MPS 359440
2010 12 13.25997 04 56 56.80 +22 17 42.9 20.0   704 – Lincoln Laboratory ETS, New Mexico MPS 359440
2010 12 25.22927 04 46 01.12 +20 52 32.3 19.0 V G96 – Mt. Lemmon Survey MPS 363059
2010 12 25.23620 04 46 00.76 +20 52 29.3 19.0 V G96 – Mt. Lemmon Survey MPS 363059
2010 12 25.24317 04 46 00.33 +20 52 26.5 18.6 V G96 – Mt. Lemmon Survey MPS 363059
2010 12 25.25007 04 46 00.08 +20 52 24.4 18.6 V G96 – Mt. Lemmon Survey MPS 363059
2011 01 10.20460 04 34 42.38 +19 06 55.9 19.1 V 703 – Catalina Sky Survey MPS 365800
2011 01 10.21082 04 34 42.20 +19 06 53.9 19.0 V 703 – Catalina Sky Survey MPS 365800
2011 01 10.21710 04 34 42.06 +19 06 52.0 19.2 V 703 – Catalina Sky Survey MPS 365800
2011 01 10.22337 04 34 41.77 +19 06 49.7 18.7 V 703 – Catalina Sky Survey MPS 365800
2011 01 13.15766 04 33 11.84 +18 49 26.4 19.0 V G96 – Mt. Lemmon Survey MPS 365800
2011 01 13.16456 04 33 11.62 +18 49 24.0 18.9 V G96 – Mt. Lemmon Survey MPS 365800
2011 01 13.17157 04 33 11.44 +18 49 21.6 19.1 V G96 – Mt. Lemmon Survey MPS 365800
2011 01 13.17855 04 33 11.23 +18 49 19.2 18.9 V G96 – Mt. Lemmon Survey MPS 365800
2012 02 12.25040 11 48 42.72 -38 59 06.7 18.3 R I19 – Observatorio El Gato Gris, Tanti MPS 411635
2012 02 12.25459 11 48 42.64 -38 59 09.5 18.2 R I19 – Observatorio El Gato Gris, Tanti MPS 411635
2012 02 12.25825 11 48 42.62 -38 59 11.9 18.6 R I19 – Observatorio El Gato Gris, Tanti MPS 411635
2012 02 13.72224 11 48 22.32 -39 14 09.6 18.3 V E12 – Siding Spring Survey MPS 411635
2012 02 13.73720 11 48 21.99 -39 14 18.3 18.9 V E12 – Siding Spring Survey MPS 411635
2012 02 13.75220 11 48 21.78 -39 14 27.5 18.9 V E12 – Siding Spring Survey MPS 411635
2012 02 13.76745 11 48 21.49 -39 14 36.7 18.5 V E12 – Siding Spring Survey MPS 411635
2012 03 20.58478 11 25 54.91 -40 56 58.4 18.0 V E12 – Siding Spring Survey MPS 418415
2012 03 20.59183 11 25 54.58 -40 56 56.1 17.8 V E12 – Siding Spring Survey MPS 418415
2012 03 20.59901 11 25 54.26 -40 56 53.5 18.2 V E12 – Siding Spring Survey MPS 418415
2012 03 20.60616 11 25 53.86 -40 56 51.2 17.7 V E12 – Siding Spring Survey MPS 418415
2012 04 04.19818 11 16 02.46 -38 54 40.5 16.5 K W91 – VHS-VISTA, Cerro Paranal MPS 678632
2012 04 04.19975 11 16 02.41 -38 54 39.5 16.7 K W91 – VHS-VISTA, Cerro Paranal MPS 678632
2012 04 04.20295 11 16 02.30 -38 54 37.3 17.2 J W91 – VHS-VISTA, Cerro Paranal MPS 678632
2012 04 04.20441 11 16 02.25 -38 54 36.3 17.1 J W91 – VHS-VISTA, Cerro Paranal MPS 678632
2012 04 11.57050 11 12 54.54 -37 24 16.9 18.1 V E12 – Siding Spring Survey MPS 420779
2012 04 11.58405 11 12 54.28 -37 24 06.2 18.0 V E12 – Siding Spring Survey MPS 420779
2012 04 11.59755 11 12 54.03 -37 23 54.9 17.9 V E12 – Siding Spring Survey MPS 420779
2012 04 11.61108 11 12 53.71 -37 23 44.3 17.7 V E12 – Siding Spring Survey MPS 420779
2012 04 26.48255 11 11 45.99 -33 48 20.3 18.1 V E12 – Siding Spring Survey MPS 422785
